Weather History for Easton, MD

Change the Weather History Date:

Tuesday, May 21, 2013

  Actual Average Record
Temperature  
Mean Temperature 74 °F -  
Max Temperature 82 °F 77 °F 92 °F (1962)
Min Temperature 67 °F 55 °F 42 °F (1956)
Cooling Degree Days 10    
Growing Degree Days 24 (Base 50)    
Moisture  
Dew Point 69 °F    
Average Humidity 93    
Maximum Humidity 100    
Minimum Humidity 66    
Precipitation  
Precipitation 0.00 in - - ()
Sea Level Pressure  
Sea Level Pressure 30.01 in    
Wind  
Wind Speed 7 mph (SW)    
Max Wind Speed 12 mph    
Max Gust Speed 16 mph    
Visibility 10 miles    
Events      
Averages and records for this station are not official NWS values.
T = Trace of Precipitation, MM = Missing Value Source: NWS Daily Summary

Daily Weather History Graph

Daily Weather History Graph

Search for Another Location

Airport:

Trip Planner

Search our weather history database for the weather conditions in past years. The results will help you decide how hot, cold, wet, or windy it might be!

Date:

Astronomy

May. 21, 2013 Rise Set
Actual Time 5:47 AM EDT 8:15 PM EDT
Civil Twilight 5:16 AM EDT 8:45 PM EDT
Nautical Twilight 4:38 AM EDT 9:23 PM EDT
Astronomical Twilight 3:56 AM EDT 10:05 PM EDT
Moon 4:28 PM EDT (5/21) 3:11 AM EDT (5/21)
Length of Visible Light 15h 29m
Length of Day
14h 28m
Waxing Gibbous, 84% of the Moon is Illuminated
May 21
Waxing Gibbous
May 25
Full
May 31
Last Quarter
Jun 8
New
Jun 16
First Quarter

Hourly Weather History & Observations

Time (EDT) Temp. Heat Index Dew Point Humidity Pressure Visibility Wind Dir Wind Speed Gust Speed Precip Events Conditions
12:00 AM 70.0 °F - 70.0 °F 100% 30.04 in 10.0 mi SSW 8.1 mph - N/A   Clear
12:20 AM 69.8 °F - 69.8 °F 100% 30.04 in 10.0 mi SSW 4.6 mph - N/A   Clear
12:40 AM 69.6 °F - 69.6 °F 100% 30.03 in 10.0 mi SSW 6.9 mph - N/A   Clear
1:00 AM 69.4 °F - 69.4 °F 100% 30.04 in 10.0 mi SSW 8.1 mph - N/A   Clear
1:20 AM 69.3 °F - 69.3 °F 100% 30.04 in 10.0 mi SW 6.9 mph - N/A   Clear
1:40 AM 68.9 °F - 68.9 °F 100% 30.04 in 10.0 mi SW 6.9 mph - N/A   Clear
2:00 AM 68.4 °F - 68.4 °F 100% 30.04 in 10.0 mi West 3.5 mph - N/A   Clear
2:21 AM 68.2 °F - 68.2 °F 100% 30.03 in 10.0 mi Calm Calm - N/A   Clear
2:41 AM 68.0 °F - 68.0 °F 100% 30.03 in 10.0 mi West 3.5 mph - N/A   Clear
3:01 AM 68.0 °F - 68.0 °F 100% 30.02 in 10.0 mi SW 6.9 mph - N/A   Scattered Clouds
3:21 AM 68.5 °F - 68.5 °F 100% 30.01 in 10.0 mi SW 9.2 mph - N/A   Overcast
3:41 AM 68.5 °F - 68.5 °F 100% 30.01 in 10.0 mi WSW 5.8 mph - N/A   Overcast
4:01 AM 68.5 °F - 68.5 °F 100% 30.02 in 10.0 mi WSW 4.6 mph - N/A   Overcast
4:21 AM 68.5 °F - 68.5 °F 100% 30.01 in 10.0 mi SW 5.8 mph - N/A   Overcast
4:41 AM 67.8 °F - 67.8 °F 100% 30.00 in 10.0 mi SW 5.8 mph - N/A   Overcast
5:01 AM 67.6 °F - 67.6 °F 100% 30.01 in 10.0 mi WSW 3.5 mph - N/A   Mostly Cloudy
5:21 AM 68.2 °F - 68.2 °F 100% 30.01 in 10.0 mi SW 5.8 mph - N/A   Overcast
5:41 AM 68.2 °F - 68.2 °F 100% 30.02 in 10.0 mi SW 6.9 mph - N/A   Overcast
5:50 AM 68.0 °F - 68.0 °F 100% 30.02 in 10.0 mi SSW 8.1 mph - N/A   Overcast
6:01 AM 68.4 °F - 68.4 °F 100% 30.02 in 10.0 mi SW 8.1 mph - N/A   Overcast
6:21 AM 68.4 °F - 68.4 °F 100% 30.03 in 10.0 mi SW 8.1 mph - N/A   Overcast
6:41 AM 68.5 °F - 68.5 °F 100% 30.04 in 10.0 mi WSW 5.8 mph - N/A   Overcast
6:50 AM 68.0 °F - 68.0 °F 100% 30.05 in 10.0 mi SW 8.1 mph - N/A   Overcast
7:01 AM 68.9 °F - 68.9 °F 100% 30.05 in 10.0 mi WSW 5.8 mph - N/A   Overcast
7:21 AM 69.1 °F - 69.1 °F 100% 30.05 in 10.0 mi WSW 4.6 mph - N/A   Overcast
7:41 AM 69.4 °F - 69.4 °F 100% 30.05 in 10.0 mi WSW 6.9 mph - N/A   Overcast
7:42 AM 69.6 °F - 69.6 °F 100% 30.05 in 10.0 mi WSW 6.9 mph - N/A   Overcast
7:50 AM 69.8 °F - 69.8 °F 100% 30.05 in 10.0 mi SW 5.8 mph - N/A   Overcast
8:50 AM 71.6 °F - 69.8 °F 94% 30.05 in 10.0 mi SW 10.4 mph - N/A   Mostly Cloudy
9:50 AM 73.4 °F - 68.0 °F 83% 30.04 in 10.0 mi SW 6.9 mph - N/A   Overcast
10:50 AM 73.4 °F - 68.0 °F 83% 30.04 in 10.0 mi WSW 5.8 mph 16.1 mph N/A   Overcast
11:50 AM 75.2 °F - 69.8 °F 83% 30.03 in 10.0 mi SSW 11.5 mph - N/A   Mostly Cloudy
12:53 PM 77.0 °F - 69.8 °F 78% 30.02 in 10.0 mi SW 9.2 mph - N/A   Mostly Cloudy
1:53 PM 80.6 °F 83.9 °F 69.8 °F 70% 30.00 in 10.0 mi SW 9.2 mph - N/A   Mostly Cloudy
2:53 PM 82.4 °F 86.3 °F 69.8 °F 66% 29.99 in 10.0 mi WSW 11.5 mph - N/A   Mostly Cloudy
3:53 PM 80.6 °F 83.9 °F 69.8 °F 70% 29.98 in 10.0 mi WSW 9.2 mph - N/A   Scattered Clouds
4:53 PM 82.4 °F 86.3 °F 69.8 °F 66% 29.96 in 10.0 mi WSW 9.2 mph - N/A   Scattered Clouds
5:53 PM 82.4 °F 86.3 °F 69.8 °F 66% 29.95 in 10.0 mi SSW 11.5 mph - N/A   Scattered Clouds
6:53 PM 80.6 °F 83.9 °F 69.8 °F 70% 29.95 in 10.0 mi SW 9.2 mph - N/A   Partly Cloudy
7:53 PM 77.0 °F - 69.8 °F 78% 29.95 in 10.0 mi SSW 5.8 mph - N/A   Scattered Clouds
8:53 PM 75.2 °F - 68.0 °F 78% 29.94 in 10.0 mi South 8.1 mph - N/A   Mostly Cloudy
11:03 PM 71.6 °F - 70.0 °F 95% 29.94 in 10.0 mi SSW 5.8 mph - N/A   Clear
11:23 PM 71.2 °F - 70.2 °F 96% 29.94 in 10.0 mi SSW 5.8 mph - N/A   Clear
11:43 PM 71.1 °F - 70.3 °F 98% 29.94 in 10.0 mi SSW 5.8 mph - N/A   Clear